Погода в Сепыче

Россия / Пермский край     58°11′16″N   54°08′26″E
темп.,
°C
ветер,
м/с
пор.,
м/с
влажн.,
%
обл.,
%
осадки,
мм/ч
давл.,
гПа
погр.,
м
22 апреля, чт
чт2223:00+8ююв51451100 0.0 1026626
02:00+7ююв41455100 0.0 1025566
05:00+5ю51371100 0.2 1025909
08:00+4ю61393100 0.3 1025927
11:00+3ю61296100 1.3 1025805
14:00+3ю51196100 0.1 1026685
17:00+4ю41096100 0.1 1027550
20:00+5ю41093100 0.0 1027596
23 апреля, пт
пт2323:00+5ю41288100 0.0 1027595
02:00+3ю3109225 0.0 1026354
05:00+4ю389699 0.0 1026397
08:00+4ю4891100 0.0 1027449
11:00+5ю3786100 0.3 1028454
14:00+8ююз467499 0.0 1028764
17:00+9ю357099 0.0 1028932
20:00+7ю258396 0.0 1027129
24 апреля, сб
сб2423:00+6юв258392 0.0 1027153
02:00+5юв2687100 0.0 1026223
05:00+5в3784100 0.0 1025347
08:00+6в4877100 0.0 1024856
11:00+8в5769100 0.0 1021820
14:00+9в5771100 0.0 1019983
17:00+7в3791100 1.0 1017878
20:00+6вюв4894100 1.5 10161051
25 апреля, вс
вс2523:00+6вюв4992100 1.9 1015841
02:00+5вюв41094100 0.1 1013610
05:00+5вюв51091100 0.1 1012739
08:00+4вюв51097100 0.4 1010872
11:00+4вюв51197100 0.9 1008778
14:00+5вюв51193100 0.6 10061094
17:00+5ююз51091100 5.6 1006862
20:00+3юз7179093 0.6 10081519
26 апреля, пн
пн2623:00+4ююз6138186 0.7 10091046
02:00+3юз6147598 0.0 1009872
05:00+2юз6158198 0.0 1010687
08:00+3юз513783 0.0 1011990
11:00+7юз612605 0.0 10111715
14:00+9зюз71047100 0.1 10112369
17:00+9зюз6105154 0.4 10121965
20:00+7зюз410615 0.3 1012861